User: anonymous
Location: Scultetus-Sternwarte G�rlitz
(51.1356°N, 14.9514°E)
Time: 01:34:12
(UTC+02:00)
Language:

Iridium 3 - Orbit

View from above orbital plane
View from above orbital plane
View from above satellite
View from above satellite

Ground track
Ground track

The orbit data is extracted from the following two-line orbital elements,

1 25431U 98048A   14244.32245498  .00000248  00000-0  81644-4 0  8570
2 25431 086.3992 321.9883 0002518 109.5391 318.8972 14.34221255839436
Epoch (UTC): 01 September 2014 07:44:20
Eccentricity: 0.0002518
inclination: 86.3992°
perigee height: 776 km
apogee height: 779 km
right ascension of ascending node: 321.9883°
argument of perigee: 109.5391°
revolutions per day: 14.34221255
mean anomaly at epoch: 318.8972°
orbit number at epoch: 83943

The dashed part of the orbit path shows where the satellite is in the earth's shadow,  

DLR